Location: Molveno
(46.1500°N, 10.9667°E)
Time: 08:03:39
(UTC+00:00)

Cosmos 1959 Rocket - Pass Details

Date: 05 July 2020
Orbit: 948 x 996 km, 82.9° (Epoch: 05 August)

Event Time Altitude Azimuth Distance (km) Brightness Sun altitude
Exits shadow 23:06:19 39° 192° (SSW) 1,404 4.8 -21.1°
Maximum altitude 23:08:48 85° 278° (W) 968 4.4 -21.1°
Drops below altitude 10° 23:15:03 10° 8° (N) 2,717 8.0 -21.2°
Sets 23:17:34 0° 9° (N) 3,676 9.0 -21.2°
